Date String (YYYY-MM-DD hh:mm:ss) UTC,Instrument flags,Ambient pressure (hPa),Sample flow (lpm),Bypass flow (lpm),Sample temperature (°C),Ambient temperature (°C),ASC tube jacket temperature (°C),LED temperature (°C),Box temperature (°C),Sample RH (%),Span deviation,Mass concentration (μg/m³),Mass concentration (μg/m³),Mass concentration (μg/m³)
DateTimeUTC,F1_M11,P_M11,Q1_M11,Q2_M11,T1_M11,T2_M11,T3_M11,T4_M11,T5_M11,U1_M11,ZSPAN_M11,X2_M11,X0_M11,X1_M11
2022-09-13 22:00:00,,0822.9,5.00,0.00,29.9,27.7,00.0,38.4,31.8,14.4,0000.8,0013.73,0026.68,0012.33
2022-09-13 22:01:00,,0823.0,5.00,0.00,29.8,26.5,00.0,38.4,31.6,14.3,0001.6,0013.75,0025.65,0012.34
2022-09-13 22:02:00,,0823.0,5.00,0.00,29.8,26.5,00.0,38.3,31.6,14.3,0001.4,0013.78,0026.25,0012.37
2022-09-13 22:03:00,,0823.0,4.99,0.00,29.7,26.7,00.0,38.3,31.4,14.6,0001.5,0013.85,0026.12,0012.44
2022-09-13 22:04:00,,0823.0,5.00,0.00,29.6,27.1,00.0,38.3,31.3,14.5,0001.6,0013.84,0025.50,0012.46
2022-09-13 22:05:00,,0823.0,5.01,0.00,29.6,27.4,00.0,38.3,31.3,14.5,0000.9,0013.79,0025.63,0012.45
2022-09-13 22:06:00,,0822.9,4.99,0.00,29.6,27.7,00.0,38.3,31.4,14.5,0001.0,0013.75,0025.96,0012.44
2022-09-13 22:07:00,,0822.9,5.03,0.00,29.7,28.0,00.0,38.3,31.5,14.5,0001.1,0013.72,0026.51,0012.40
2022-09-13 22:08:00,,0822.9,5.00,0.00,29.7,28.2,00.0,38.3,31.5,14.4,0001.6,0013.68,0026.70,0012.36
2022-09-13 22:09:00,,0822.9,5.00,0.00,29.7,28.4,00.0,38.3,31.6,14.5,0001.8,0013.60,0026.20,0012.33
2022-09-13 22:10:00,,0822.9,4.99,0.00,29.8,28.5,00.0,38.4,31.6,14.8,0001.9,0013.58,0026.64,0012.34
2022-09-13 22:11:00,,0822.9,5.00,0.00,29.8,28.6,00.0,38.4,31.7,14.2,0002.6,0013.50,0026.28,0012.32
2022-09-13 22:12:00,,0822.9,5.01,0.00,29.8,28.1,00.0,38.4,31.7,13.7,0002.1,0013.55,0025.22,0012.36
2022-09-13 22:13:00,,0822.9,5.01,0.00,29.8,26.8,00.0,38.4,31.6,13.5,0002.1,0013.55,0024.17,0012.40
2022-09-13 22:14:00,,0822.8,5.00,0.00,29.7,26.4,00.0,38.3,31.5,13.8,0002.2,0013.55,0024.18,0012.43
2022-09-13 22:15:00,,0822.8,5.00,0.00,29.7,26.7,00.0,38.3,31.5,14.0,0002.3,0013.57,0025.18,0012.44
2022-09-13 22:16:00,,0822.8,4.99,0.00,29.6,27.0,00.0,38.3,31.3,14.2,0002.6,0013.62,0024.83,0012.45
2022-09-13 22:17:00,,0822.8,5.01,0.00,29.6,27.3,00.0,38.3,31.3,13.6,0003.0,0013.62,0024.39,0012.43
2022-09-13 22:18:00,,0822.8,4.99,0.00,29.6,27.6,00.0,38.3,31.4,13.9,0002.9,0013.63,0025.41,0012.41
2022-09-13 22:19:00,,0822.8,5.01,0.00,29.6,27.9,00.0,38.3,31.5,13.6,0003.0,0013.63,0024.97,0012.41
2022-09-13 22:20:00,,0822.8,5.00,0.00,29.7,28.1,00.0,38.3,31.5,13.7,0003.6,0013.62,0024.91,0012.40
2022-09-13 22:21:00,,0822.8,4.99,0.00,29.7,28.3,00.0,38.3,31.5,13.8,0003.6,0013.59,0024.39,0012.39
2022-09-13 22:22:00,,0822.8,5.00,0.00,29.7,28.5,00.0,38.3,31.6,14.3,0003.1,0013.64,0024.64,0012.39
2022-09-13 22:23:00,,0822.8,5.01,0.00,29.8,28.6,00.0,38.4,31.7,14.4,0003.4,0013.60,0025.81,0012.36
2022-09-13 22:24:00,,0822.7,4.99,0.00,29.8,28.7,00.0,38.4,31.8,13.4,0003.8,0013.64,0028.10,0012.36
2022-09-13 22:25:00,,0822.8,5.01,0.00,29.8,27.9,00.0,38.4,31.8,13.6,0003.6,0013.71,0028.55,0012.38
2022-09-13 22:26:00,,0822.8,5.00,0.00,29.8,26.6,00.0,38.4,31.6,14.1,0003.3,0013.73,0028.67,0012.42
2022-09-13 22:27:00,,0822.8,5.00,0.00,29.7,26.4,00.0,38.3,31.5,14.0,0003.3,0013.75,0029.66,0012.46
2022-09-13 22:28:00,,0822.8,5.01,0.00,29.7,26.7,00.0,38.3,31.3,13.7,0003.1,0013.82,0031.28,0012.51
2022-09-13 22:29:00,,0822.8,5.00,0.00,29.6,27.0,00.0,38.3,31.3,13.6,0003.0,0013.84,0030.29,0012.54
2022-09-13 22:30:00,,0822.8,4.99,0.00,29.6,27.3,00.0,38.3,31.3,13.5,0003.0,0013.84,0031.59,0012.58
2022-09-13 22:31:00,,0822.8,5.00,0.00,29.6,27.6,00.0,38.3,31.4,13.6,0002.7,0013.88,0031.92,0012.62
2022-09-13 22:32:00,,0822.8,4.99,0.00,29.6,27.9,00.0,38.3,31.4,13.7,0002.3,0013.94,0032.05,0012.67
2022-09-13 22:33:00,,0822.7,5.00,0.00,29.7,28.1,00.0,38.3,31.5,13.7,0002.5,0013.99,0031.84,0012.72
2022-09-13 22:34:00,,0822.8,5.01,0.00,29.7,28.3,00.0,38.3,31.6,13.6,0002.1,0014.06,0031.01,0012.77
2022-09-13 22:35:00,,0822.8,5.01,0.00,29.7,28.5,00.0,38.3,31.7,14.0,0002.0,0014.01,0029.02,0012.77
2022-09-13 22:36:00,,0822.7,5.00,0.00,29.8,28.6,00.0,38.4,31.7,13.5,0002.3,0013.95,0028.19,0012.73
2022-09-13 22:37:00,,0822.7,5.00,0.00,29.8,28.1,00.0,38.4,31.7,13.6,0002.8,0014.02,0027.87,0012.71
2022-09-13 22:38:00,,0822.7,5.00,0.00,29.8,26.8,00.0,38.3,31.6,13.8,0002.6,0014.01,0027.55,0012.70
2022-09-13 22:39:00,,0822.7,5.00,0.00,29.7,26.4,00.0,38.3,31.6,14.3,0002.3,0014.01,0026.77,0012.72
2022-09-13 22:40:00,,0822.8,5.00,0.00,29.7,26.7,00.0,38.3,31.4,13.5,0002.1,0013.97,0026.50,0012.75
2022-09-13 22:41:00,,0822.8,5.00,0.00,29.6,27.0,00.0,38.3,31.3,13.4,0001.9,0014.03,0025.11,0012.75
2022-09-13 22:42:00,,0822.8,4.99,0.00,29.6,27.3,00.0,38.3,31.3,13.4,0002.1,0014.03,0024.55,0012.73
2022-09-13 22:43:00,,0822.8,5.00,0.00,29.6,27.6,00.0,38.3,31.3,13.9,0002.3,0014.03,0024.27,0012.71
2022-09-13 22:44:00,,0822.8,5.00,0.00,29.6,27.9,00.0,38.3,31.4,13.5,0002.3,0013.99,0024.43,0012.70
2022-09-13 22:45:00,,0822.7,5.00,0.00,29.6,28.1,00.0,38.3,31.5,13.9,0002.4,0013.92,0024.64,0012.66
2022-09-13 22:46:00,,0822.7,5.01,0.00,29.7,28.3,00.0,38.3,31.6,13.6,0002.4,0013.99,0025.45,0012.69
2022-09-13 22:47:00,,0822.7,5.00,0.00,29.7,28.5,00.0,38.3,31.6,13.6,0001.6,0014.11,0026.28,0012.80
2022-09-13 22:48:00,,0822.7,5.00,0.00,29.8,28.6,00.0,38.4,31.7,13.3,0001.3,0014.16,0025.94,0012.90
2022-09-13 22:49:00,,0822.7,5.00,0.00,29.8,27.8,00.0,38.4,31.7,13.4,0000.7,0014.25,0025.60,0012.97
2022-09-13 22:50:00,,0822.7,5.00,0.00,29.8,26.7,00.0,38.3,31.6,14.0,0000.5,0014.34,0024.77,0013.05
2022-09-13 22:51:00,,0822.6,4.99,0.00,29.7,26.5,00.0,38.3,31.5,14.4,0000.7,0014.42,0025.07,0013.06
2022-09-13 22:52:00,,0822.6,4.99,0.00,29.7,26.7,00.0,38.3,31.4,14.0,0000.8,0014.48,0025.95,0013.10
2022-09-13 22:53:00,,0822.6,5.01,0.00,29.6,27.0,00.0,38.3,31.2,13.9,0000.6,0014.49,0026.07,0013.13
2022-09-13 22:54:00,,0822.6,5.00,0.00,29.6,27.4,00.0,38.3,31.3,14.2,0000.5,0014.49,0026.10,0013.15
2022-09-13 22:55:00,,0822.6,5.00,0.00,29.6,27.7,00.0,38.3,31.3,14.3,0000.7,0014.56,0026.60,0013.20
2022-09-13 22:56:00,,0822.7,4.99,0.00,29.6,27.9,00.0,38.3,31.4,13.9,0001.1,0014.61,0026.42,0013.26
2022-09-13 22:57:00,,0822.6,5.00,0.00,29.6,28.1,00.0,38.3,31.5,14.0,0001.0,0014.59,0025.76,0013.27
2022-09-13 22:58:00,,0822.7,5.01,0.00,29.7,28.3,00.0,38.3,31.6,14.0,0001.4,0014.56,0025.32,0013.25
2022-09-13 22:59:00,,0822.6,5.00,0.00,29.7,28.5,00.0,38.3,31.6,14.2,0001.1,0014.51,0024.98,0013.20
